Location: Nairn
(57.5833°N, 3.8667°W)
Time: 22:23:47
(UTC+00:00)

Altair - Pass Details

Date: 07 October 2022
Orbit: 1501 x 1682 km, 47.2° (Epoch: 05 December)

Event Time Altitude Azimuth Distance (km) Brightness Sun altitude
Exits shadow 04:56:19 - 221° (SW) 4,114 9.3 -13.6°
Reaches altitude 10° 04:57:25 10° 219° (SW) 3,805 9.1 -13.4°
Maximum altitude 05:06:01 38° 156° (SSE) 2,338 8.6 -12.3°
Drops below altitude 10° 05:14:53 10° 94° (E) 3,925 11.1 -11.1°
Sets 05:18:21 0° 87° (E) 4,927 12.4 -10.7°
